This is the latest recevied weather packets stored in our database for station/object OH2TI. If no packets are shown the sender has not sent any weather packets the latest 10 day(s).
| Time | Temp. | Humidity | Pressure | Rain* | Wind** | Luminosity | Snow |
|---|---|---|---|---|---|---|---|
| 1777453734 | 6.11° C | 37% | 1021.5 hPa | - | - | - | - |
| 1777453223 | 5.56° C | 38% | 1021.5 hPa | - | - | - | - |
| 1777452661 | 5.56° C | 37% | 1021.6 hPa | - | - | - | - |
| 1777451796 | 5.56° C | 38% | 1021.6 hPa | - | - | - | - |
| 1777451361 | 5.56° C | 38% | 1021.7 hPa | - | - | - | - |
| 1777450924 | 5.56° C | 38% | 1021.6 hPa | - | - | - | - |
| 1777450196 | 5° C | 39% | 1021.7 hPa | - | - | - | - |
| 1777449751 | 5° C | 40% | 1021.7 hPa | - | - | - | - |
| 1777448858 | 5° C | 40% | 1021.7 hPa | - | - | - | - |
| 1777448031 | 4.44° C | 40% | 1021.5 hPa | - | - | - | - |
| 1777447364 | 4.44° C | 41% | 1021.5 hPa | - | - | - | - |
| 1777446831 | 4.44° C | 42% | 1021.5 hPa | - | - | - | - |
| 1777446201 | 4.44° C | 42% | 1021.5 hPa | - | - | - | - |
| 1777445494 | 3.89° C | 42% | 1021.4 hPa | - | - | - | - |
| 1777444811 | 4.44° C | 42% | 1021.5 hPa | - | - | - | - |
| 1777444253 | 4.44° C | 40% | 1021.5 hPa | - | - | - | - |
| 1777443821 | 4.44° C | 40% | 1021.5 hPa | - | - | - | - |
| 1777443064 | 3.89° C | 44% | 1021.5 hPa | - | - | - | - |
| 1777442714 | 3.89° C | 45% | 1021.4 hPa | - | - | - | - |
| 1777441941 | 3.89° C | 46% | 1021.4 hPa | - | - | - | - |
| 1777441044 | 3.33° C | 47% | 1021.3 hPa | - | - | - | - |
| 1777440154 | 3.33° C | 49% | 1021.4 hPa | - | - | - | - |
| 1777439501 | 3.33° C | 51% | 1021.4 hPa | - | - | - | - |
| 1777438976 | 3.33° C | 52% | 1021.4 hPa | - | - | - | - |
| 1777438514 | 2.78° C | 51% | 1021.3 hPa | - | - | - | - |
* Rain since midnight (hover to see other rain measurements)
** Current wind speed in m/s (hover to see current wind gust speed)